This demonstration page uses our WeatherBlox Daily Observations layout. Learn more.

Hourly Observations for April 30, 2019

Temp ( °F °C ) Dew Point ( °F °C ) Humidity (%) Winds ( mph kmh ) Pressure ( in mb ) Visibility ( mi km ) Precip ( " mm )
12:15 am 00:15 Cloudy 42 5.5 33 0.4 70 70 NNE 14 22 30.2 1023 10 16.0934 0 0
12:35 am 00:35 Cloudy 42 5.3 33 0.5 71 71 NNE 14 22 30.21 1023 10 16.0934 0 0
12:55 am 00:55 Cloudy 41 5.1 33 0.7 74 74 NNE 15 24 30.21 1023 10 16.0934 0 0
1:15 am 01:15 Cloudy 41 4.9 33 0.5 73 73 NNE 13 20 30.2 1023 10 16.0934 0 0
1:35 am 01:35 Cloudy 40 4.7 33 0.7 76 76 NNE 12 19 30.2 1023 10 16.0934 0 0
1:55 am 01:55 Cloudy 40 4.6 33 0.5 75 75 NNE 17 28 30.18 1022 10 16.0934 0 0
2:15 am 02:15 Cloudy 40 4.5 33 0.6 76 76 NNE 13 20 30.19 1022 10 16.0934 0 0
2:35 am 02:35 Cloudy 40 4.5 33 0.6 76 76 NNE 14 22 30.18 1022 10 16.0934 0 0
2:55 am 02:55 Cloudy 40 4.5 33 0.8 77 77 NNE 14 22 30.18 1022 10 16.0934 0 0
3:15 am 03:15 Cloudy 40 4.3 34 1 79 79 NNE 14 22 30.17 1022 10 16.0934 0 0
3:35 am 03:35 Cloudy 40 4.2 34 1.1 80 80 NNE 14 22 30.16 1021 10 16.0934 0 0
3:55 am 03:55 Cloudy 39 4 34 1.2 82 82 NNE 12 19 30.15 1021 10 16.0934 0 0
4:15 am 04:15 Cloudy 39 4 35 1.4 83 83 NNE 13 20 30.15 1021 10 16.0934 0 0
4:35 am 04:35 Cloudy 39 3.8 35 1.5 85 85 NE 12 19 30.15 1021 10 16.0934 0 0
4:55 am 04:55 Cloudy 38 3.5 35 1.9 89 89 NNE 13 20 30.14 1021 10 16.0934 0 0
5:15 am 05:15 Cloudy 38 3.5 36 2 90 90 NE 13 20 30.14 1021 10 16.0934 0 0
5:35 am 05:35 Cloudy 38 3.5 36 2.1 91 91 NNE 13 20 30.15 1021 10 16.0934 0 0
5:55 am 05:55 Cloudy 38 3.5 36 2.2 91 91 N 9 15 30.16 1021 10 16.0934 0 0
6:15 am 06:15 Cloudy 38 3.2 36 2.2 93 93 N 13 20 30.16 1021 10 16.0934 0 0
6:35 am 06:35 Cloudy 37 3 36 2.1 94 94 NNE 12 19 30.18 1022 10 16.0934 0 0
6:55 am 06:55 Cloudy 37 3 36 2.1 94 94 NNE 12 19 30.17 1022 10 16.0934 0 0
7:15 am 07:15 Cloudy 37 3 36 2.3 95 95 NNE 12 19 30.19 1022 10 16.0934 0 0
7:35 am 07:35 Cloudy 37 3 37 2.5 97 97 NE 13 20 30.17 1022 10 16.0934 0 0
7:55 am 07:55 Cloudy 37 3 37 2.5 97 97 NE 14 22 30.16 1021 10 16.0934 0 0
8:15 am 08:15 Cloudy 38 3.1 37 2.6 97 97 ENE 16 26 30.15 1021 10 16.0934 0 0
8:35 am 08:35 Cloudy 37 3 37 2.5 97 97 NE 16 26 30.14 1021 10 16.0934 0 0
8:55 am 08:55 Cloudy 38 3.4 37 2.9 97 97 ENE 18 30 30.1 1019 10 16.0934 0 0
9:15 am 09:15 Cloudy 39 3.7 37 3 95 95 ENE 16 26 30.09 1019 10 16.0934 0 0
9:35 am 09:35 Cloudy 40 4.5 38 3.2 91 91 E 17 28 30.06 1018 10 16.0934 0 0
9:55 am 09:55 Cloudy 40 4.6 37 3 89 89 ENE 13 20 30.09 1019 10 16.0934 0 0
10:15 am 10:15 Cloudy 41 5.1 38 3.2 88 88 ENE 12 19 30.07 1018 10 16.0934 0 0
10:35 am 10:35 Cloudy 42 5.8 38 3.4 85 85 ENE 13 20 30.06 1018 10 16.0934 0 0
10:55 am 10:55 Cloudy 43 6 38 3.3 83 83 NE 13 20 30.06 1018 10 16.0934 0 0
11:15 am 11:15 Cloudy with Nearby Thunderstorms 43 6 38 3.3 83 83 ENE 9 15 30.06 1018 10 16.0934 0 0
11:35 am 11:35 Cloudy 43 6 38 3.3 83 83 NE 10 17 30.07 1018 10 16.0934 0 0
11:55 am 11:55 Cloudy 43 6.2 38 3.6 84 84 NE 8 13 30.08 1019 10 16.0934 0 0
12:15 pm 12:15 Cloudy 43 6.2 38 3.5 83 83 ENE 9 15 30.05 1018 10 16.0934 0 0
12:35 pm 12:35 Cloudy with Light Drizzle 43 6.3 39 3.7 84 84 E 9 15 30.05 1017 10 16.0934 0 0
12:55 pm 12:55 Cloudy 44 6.5 38 3.5 81 81 ENE 14 22 30.01 1016 10 16.0934 0 0
1:15 pm 13:15 Cloudy 44 6.7 38 3.5 80 80 ENE 14 22 30 1016 10 16.0934 0 0
1:35 pm 13:35 Cloudy 45 7 38 3.5 79 79 ENE 15 24 30 1016 10 16.0934 0 0
1:55 pm 13:55 Cloudy 45 7.3 39 3.9 79 79 ENE 15 24 29.98 1015 10 16.0934 0 0
2:15 pm 14:15 Cloudy 46 7.6 39 4.1 79 79 ENE 17 28 29.96 1015 10 16.0934 0 0
2:35 pm 14:35 Cloudy 46 7.9 40 4.5 79 79 ENE 14 22 29.95 1014 10 16.0934 0 0
2:55 pm 14:55 Cloudy 46 8 40 4.2 77 77 NE 15 24 29.93 1014 10 16.0934 0 0
3:15 pm 15:15 Cloudy 46 8 40 4.5 79 79 ENE 14 22 29.94 1014 10 16.0934 0 0
3:35 pm 15:35 Cloudy with Light Drizzle 46 7.9 41 5 82 82 NE 14 22 29.93 1014 10 16.0934 0 0
3:55 pm 15:55 Cloudy 46 7.9 42 5.3 84 84 ENE 12 19 29.93 1014 10 16.0934 0 0
4:15 pm 16:15 Cloudy 46 8 41 5 82 82 NE 13 20 29.93 1014 10 16.0934 0 0
4:35 pm 16:35 Cloudy 46 7.7 41 5 83 83 NE 13 20 29.93 1014 10 16.0934 0 0
4:55 pm 16:55 Cloudy 46 7.7 41 5.1 84 84 NE 14 22 29.93 1014 10 16.0934 0 0
5:15 pm 17:15 Cloudy 46 7.7 41 5.1 84 84 NE 15 24 29.92 1013 10 16.0934 0 0
5:35 pm 17:35 Cloudy 46 7.7 42 5.3 85 85 NE 14 22 29.92 1013 10 16.0934 0 0
5:55 pm 17:55 Cloudy 46 7.5 42 5.5 87 87 NE 13 20 29.93 1013 10 16.0934 0 0
6:15 pm 18:15 Cloudy 45 7 42 5.7 92 92 NNE 12 19 29.94 1014 7 11.26538 0 0
6:35 pm 18:35 Cloudy with Mist and Fog 44 6.5 43 6 97 97 NNE 14 22 29.93 1014 3 4.82802 0 0
6:55 pm 18:55 Cloudy with Mist and Fog 44 6.5 43 6.2 98 98 NNE 12 19 29.94 1014 2.5 4.02335 0 0
7:15 pm 19:15 Cloudy with Mist and Fog 43 6.2 43 6.2 100 100 NNE 10 17 29.95 1014 4 6.43736 0 0
7:35 pm 19:35 Cloudy with Drizzle 44 6.5 43 6.2 98 98 NNE 10 17 29.95 1014 5 8.0467 0 0
7:55 pm 19:55 Cloudy with Rain 43 6.2 43 6.2 100 100 N 10 17 29.96 1014 4 6.43736 0.02 0.508
8:15 pm 20:15 Cloudy with Rain 43 6 43 6 100 100 N 10 17 29.96 1015 4 6.43736 0.01 0.254
8:35 pm 20:35 Cloudy with Light Rain 43 6 43 6 100 100 N 13 20 29.96 1015 5 8.0467 0.01 0.254
8:55 pm 20:55 Cloudy with Light Drizzle 42 5.8 42 5.8 100 100 NNE 10 17 29.97 1015 7 11.26538 0.01 0.254
9:15 pm 21:15 Cloudy 43 6 43 6 100 100 N 10 17 29.98 1015 7 11.26538 0 0
9:35 pm 21:35 Cloudy 43 6.1 43 6.1 100 100 N 12 19 29.98 1015 10 16.0934 0 0
9:55 pm 21:55 Cloudy 43 6 43 6 100 100 N 15 24 29.98 1015 10 16.0934 0 0
10:15 pm 22:15 Cloudy 42 5.8 42 5.8 100 100 N 15 24 29.98 1015 10 16.0934 0 0
10:35 pm 22:35 Cloudy 42 5.8 42 5.8 100 100 N 15 24 30 1016 10 16.0934 0 0
10:55 pm 22:55 Cloudy 42 5.7 42 5.6 99 99 N 17 28 30 1016 10 16.0934 0 0
11:15 pm 23:15 Cloudy 42 5.6 42 5.5 99 99 N 15 24 29.99 1016 10 16.0934 0 0
11:35 pm 23:35 Cloudy 42 5.5 42 5.5 100 100 NNE 15 24 30 1016 10 16.0934 0 0
11:55 pm 23:55 Cloudy 42 5.5 42 5.5 100 100 NNE 12 19 30.01 1016 10 16.0934 0 0

Powered by AerisWeather